This is the latest recevied weather packets stored in our database for station/object LU2DKV-10. If no packets are shown the sender has not sent any weather packets the latest 10 day(s).
| Time | Temp. | Humidity | Pressure | Rain* | Wind** | Luminosity | Snow |
|---|---|---|---|---|---|---|---|
| 1778115009 | 23.33° C | 95% | 1000 hPa | - | - | 0 W/m² | - |
| 1778113187 | 23.33° C | 95% | 1000 hPa | - | - | 0 W/m² | - |
| 1778111365 | 22.22° C | 98% | 1000 hPa | - | - | 0 W/m² | - |
| 1778109543 | 21.67° C | 94% | 999 hPa | - | - | 0 W/m² | - |
| 1778107721 | 21.67° C | 93% | 1001 hPa | - | - | 0 W/m² | - |
| 1778105899 | 21.67° C | 93% | 1001 hPa | - | - | 0 W/m² | - |
| 1778104077 | 21.67° C | 93% | 1002 hPa | - | - | 0 W/m² | - |
| 1778103424 | 21.67° C | 93% | 1002 hPa | - | - | 0 W/m² | - |
| 1778101602 | 22.22° C | 92% | 1002 hPa | - | - | 0 W/m² | - |
| 1778099780 | 22.22° C | 91% | 1002 hPa | - | - | 0 W/m² | - |
| 1778097958 | 22.22° C | 89% | 1003 hPa | - | - | 0 W/m² | - |
| 1778096136 | 22.78° C | 88% | 1003 hPa | - | - | 0 W/m² | - |
| 1778094316 | 22.78° C | 87% | 1004 hPa | - | - | 0 W/m² | - |
| 1778092492 | 23.33° C | 91% | 1004 hPa | - | - | 0 W/m² | - |
| 1778090670 | 22.78° C | 92% | 1005 hPa | - | - | 0 W/m² | - |
| 1778088848 | 23.33° C | 94% | 1005 hPa | - | - | 0 W/m² | - |
| 1778087026 | 22.78° C | 96% | 1006 hPa | - | - | 0 W/m² | - |
| 1778085204 | 22.22° C | 99% | 1007 hPa | - | - | 0 W/m² | - |
| 1778083382 | 21.11° C | 99% | 1007 hPa | - | - | 0 W/m² | - |
| 1778081559 | 21.11° C | 99% | 1008 hPa | - | - | 0 W/m² | - |
| 1778079738 | 20.56° C | 99% | 1009 hPa | - | - | 0 W/m² | - |
| 1778077915 | 20.56° C | 99% | 1009 hPa | - | - | 0 W/m² | - |
| 1778076095 | 20.56° C | 96% | 1009 hPa | - | - | 0 W/m² | - |
| 1778074272 | 20.56° C | 98% | 1010 hPa | - | - | 0 W/m² | - |
| 1778072450 | 20° C | 99% | 1010 hPa | - | - | 0 W/m² | - |
* Rain since midnight (hover to see other rain measurements)
** Current wind speed in m/s (hover to see current wind gust speed)